"Pseudo-MPEC" for scax010

Created 2023 Mar 26 5:22:16 UT using Find_Orb

Click here for an explanation of pseudo-MPECs

 
 Astrometry: 
     scax010* C2023 02 23_N!gk/b,xVm(?-GX:(QYIL,\3k!0:^=[)Cj%y]-ZAstrometryVoL92
     scax010  C2023 02 23'4/redacted;d@Bg\ns\clickdslZhereh+xIhXmX7FpyLnba#L[L92
     scax010  C2023 02 23ymfor=GA[)+UPfC5F#P96h:,g@2[explanation\M8b.kV%8waB\L92

Station data:
(L92) San Costantino  (N38.705391 E16.002110)  Italy.  Observer T. Scarmato.
   0.25-m Newtonian reflector + CCD.

Orbital elements:  scax010
   Perihelion 2023 Jan 2.93878 +/- 44.6 TT = 22:31:50 (JD 2459947.43878)
Epoch 2023 Feb 24.0 TT = JDT 2459999.5   Earth MOID: 0.2424   Ma: 0.0529
M  14.76255809 +/- 20               (J2000 ecliptic)             AutoNEOCP
n   0.28356149 +/- 0.228            Peri.  333.07762 +/- 70
a   2.29458706 +/- 1.23             Node   136.31792 +/- 46
e   0.4667554 +/- 0.204             Incl.    3.96031 +/- 1.7
P   3.48                   H 20.07  G  0.15   U 11.8  SR
q 1.22357612 +/- 0.312    Q 3.36559800 +/- 3.96
From 3 observations 2023 Feb. 23 (22.5 min); mean residual 1".12
Residuals in arcseconds: 
230223 L92  .91-  .51-    230223 L92  1.9+  1.1+    230223 L92  1.0-  .61-    

Ephemerides (geocentric):
Date (UTC) HH   RA             Dec           delta  r     elong  mag " sig PA
---- --------  ------------   ------------  ------ ------ -----  --- --------
2023 03 26 05  10 17 34.150   +17 22 02.58  .55408 1.4839 144.5 20.8  58d   7
2023 03 26 06  10 17 36.286   +17 21 52.95  .55445 1.4841 144.5 20.8  58d   7
2023 03 26 07  10 17 38.424   +17 21 43.30  .55481 1.4843 144.5 20.8  58d   7
2023 03 26 08  10 17 40.565   +17 21 33.61  .55517 1.4845 144.4 20.8  58d   7
2023 03 26 09  10 17 42.707   +17 21 23.90  .55553 1.4848 144.4 20.8  58d   7
2023 03 26 10  10 17 44.851   +17 21 14.16  .55589 1.4850 144.4 20.8  58d   7
2023 03 26 11  10 17 46.997   +17 21 04.39  .55625 1.4852 144.3 20.8  58d   7
2023 03 26 12  10 17 49.145   +17 20 54.60  .55661 1.4854 144.3 20.8  58d   7
2023 03 26 13  10 17 51.295   +17 20 44.78  .55698 1.4857 144.3 20.8  58d   7
2023 03 26 14  10 17 53.447   +17 20 34.92  .55734 1.4859 144.2 20.8  58d   7
2023 03 26 15  10 17 55.600   +17 20 25.04  .55770 1.4861 144.2 20.8  58d   7
2023 03 26 16  10 17 57.756   +17 20 15.14  .55806 1.4863 144.2 20.8  58d   7
2023 03 26 17  10 17 59.913   +17 20 05.20  .55843 1.4866 144.2 20.8  58d   7
2023 03 26 18  10 18 02.073   +17 19 55.24  .55879 1.4868 144.1 20.8  58d   7
2023 03 26 19  10 18 04.234   +17 19 45.25  .55915 1.4870 144.1 20.8  58d   7
2023 03 26 20  10 18 06.397   +17 19 35.23  .55952 1.4872 144.1 20.8  58d   7
2023 03 26 21  10 18 08.562   +17 19 25.18  .55988 1.4875 144.0 20.8  58d   7
2023 03 26 22  10 18 10.730   +17 19 15.11  .56025 1.4877 144.0 20.8  58d   7
2023 03 26 23  10 18 12.898   +17 19 05.01  .56061 1.4879 144.0 20.8  58d   7
2023 03 27 00  10 18 15.069   +17 18 54.88  .56097 1.4881 143.9 20.8  58d   7
2023 03 27 01  10 18 17.242   +17 18 44.72  .56134 1.4884 143.9 20.8  58d   7
2023 03 27 02  10 18 19.417   +17 18 34.54  .56170 1.4886 143.9 20.8  58d   7
2023 03 27 03  10 18 21.593   +17 18 24.32  .56207 1.4888 143.8 20.8  58d   7
2023 03 27 04  10 18 23.772   +17 18 14.08  .56243 1.4890 143.8 20.8  58d   7
2023 03 27 05  10 18 25.952   +17 18 03.82  .56280 1.4892 143.8 20.8  58d   7
2023 03 27 06  10 18 28.134   +17 17 53.52  .56317 1.4895 143.7 20.8  58d   7
2023 03 27 07  10 18 30.318   +17 17 43.20  .56353 1.4897 143.7 20.8  58d   7
2023 03 27 08  10 18 32.504   +17 17 32.85  .56390 1.4899 143.7 20.8  58d   7
2023 03 27 09  10 18 34.692   +17 17 22.47  .56426 1.4901 143.6 20.8  58d   7
2023 03 27 10  10 18 36.882   +17 17 12.07  .56463 1.4904 143.6 20.8  58d   7
2023 03 27 11  10 18 39.074   +17 17 01.64  .56500 1.4906 143.6 20.9  58d   7
2023 03 27 12  10 18 41.267   +17 16 51.18  .56537 1.4908 143.6 20.9  58d   7
2023 03 27 13  10 18 43.463   +17 16 40.69  .56573 1.4910 143.5 20.9  58d   7
2023 03 27 14  10 18 45.660   +17 16 30.18  .56610 1.4913 143.5 20.9  58d   7
2023 03 27 15  10 18 47.859   +17 16 19.64  .56647 1.4915 143.5 20.9  58d   7
2023 03 27 16  10 18 50.060   +17 16 09.07  .56684 1.4917 143.4 20.9  58d   7
2023 03 27 17  10 18 52.263   +17 15 58.48  .56720 1.4919 143.4 20.9  58d   7
2023 03 27 18  10 18 54.468   +17 15 47.86  .56757 1.4922 143.4 20.9  58d   7
2023 03 27 19  10 18 56.675   +17 15 37.21  .56794 1.4924 143.3 20.9  58d   7
2023 03 27 20  10 18 58.883   +17 15 26.53  .56831 1.4926 143.3 20.9  58d   7
2023 03 27 21  10 19 01.094   +17 15 15.83  .56868 1.4928 143.3 20.9  58d   7
2023 03 27 22  10 19 03.306   +17 15 05.10  .56905 1.4931 143.2 20.9  58d   7
2023 03 27 23  10 19 05.520   +17 14 54.35  .56942 1.4933 143.2 20.9  58d   7
2023 03 28 00  10 19 07.736   +17 14 43.56  .56979 1.4935 143.2 20.9  58d   7
2023 03 28 01  10 19 09.954   +17 14 32.75  .57016 1.4937 143.1 20.9  58d   7
2023 03 28 02  10 19 12.174   +17 14 21.92  .57053 1.4940 143.1 20.9  58d   7
2023 03 28 03  10 19 14.396   +17 14 11.05  .57090 1.4942 143.1 20.9  58d   7
2023 03 28 04  10 19 16.619   +17 14 00.16  .57127 1.4944 143.0 20.9  58d   7